Temp
65 65 64 65 65 66 66 65 63 63 63 63 63 64 65 65 65 64 64 63 64 64 64 63 65 66 67 67 67 67 67 67 67 67 66 66 66 66 65 65 65 65 65 65 66 66 68 69 68 69 69 70 69 69 69 69 69 70 69 69 69 69 69
65 65 65 65 65 65 64 64 62 63 63 63 63 64 64 64 64 64 65 64 64 65 64 63 65 65 65 66 66 66 66 66 67 68 67 66 66 66 66 65 65 65 65 66 66 67 68 68 69 69 69 69 69 69 69 69 69 69 68 68 67 67 68
64 64 65 65 65 64 64 63 62 63 63 63 64 63 63 64 63 64 64 63 65 65 62 63 64 63 64 64 64 65 64 65 65 66 65 65 65 66 66 66 66 65 66 67 67 67 69 69 69 69 69 69 69 69 69 69 69 69 69 68 68 68 68
64 64 65 65 64 63 63 63 63 64 64 64 64 63 63 65 64 63 63 63 64 64 64 63 62 63 64 64 64 64 64 63 64 65 65 65 65 65 65 65 65 65 65 66 67 68 69 68 68 68 70 69 69 69 69 69 69 69 69 69 68 69 68
63 64 63 63 63 62 62 61 63 64 65 66 63 64 64 64 64 64 63 63 62 65 64 63 63 63 64 63 63 64 65 63 64 64 65 65 65 65 64 64 65 65 65 66 66 67 67 66 67 67 67 67 67 68 68 68 68 68 69 69 68 69 68
63 63 62 63 63 62 63 63 64 66 66 65 63 64 65 65 65 64 63 65 63 64 62 62 62 62 62 62 62 63 62 62 63 64 64 64 64 64 64 64 64 65 65 65 66 66 66 66 66 67 66 67 67 67 67 67 67 67 68 68 68 68 68
63 63 62 63 63 62 63 64 65 66 64 64 63 65 65 65 65 65 64 63 64 63 64 63 62 62 63 63 62 62 61 62 62 63 63 63 63 64 63 64 65 64 65 65 65 66 65 65 65 66 67 67 68 68 68 68 68 69 69 68 68 68 68
64 63 62 63 63 64 64 64 64 63 63 63 63 65 65 65 64 65 64 64 63 64 62 63 62 62 63 63 63 61 61 62 62 62 62 62 62 63 63 63 63 64 65 64 65 65 65 65 65 66 67 67 67 67 66 67 68 69 68 68 68 68 69
63 63 64 64 64 64 64 63 63 62 63 62 63 63 63 63 63 63 63 64 63 63 63 63 63 62 63 62 62 61 61 61 62 62 62 61 61 62 62 63 63 64 64 64 65 65 65 65 65 66 66 66 66 66 66 66 66 67 67 67 67 67 68
61 61 62 63 63 63 61 61 60 60 61 61 61 61 62 62 61 62 61 63 62 63 63 62 62 63 62 62 61 61 61 61 61 61 62 61 62 62 62 63 63 64 64 65 65 65 65 66 66 66 66 65 66 66 66 66 66 66 67 67 67 67 67
61 62 62 62 61 61 60 60 60 61 61 60 61 61 60 61 62 61 62 61 62 62 63 62 61 62 62 61 61 61 60 61 61 61 62 62 62 62 63 63 63 64 65 65 65 66 66 66 67 66 66 66 66 66 66 66 66 66 66 67 67 67 67
62 61 62 62 60 59 60 61 60 59 59 59 60 61 60 61 61 61 61 61 61 62 61 61 62 62 62 61 61 61 61 61 61 61 62 63 63 63 63 63 63 63 64 65 65 66 66 66 66 66 66 66 66 66 66 66 66 66 66 66 67 67 67
62 62 62 62 61 60 59 58 60 60 60 61 61 60 61 61 61 61 60 61 60 60 60 61 61 61 60 61 60 60 61 61 61 61 62 62 62 63 63 63 63 64 64 65 66 66 66 67 67 67 67 67 66 66 66 66 66 66 66 65 66 66 66
65 61 60 59 58 59 60 60 60 60 61 60 61 61 61 61 61 61 60 61 60 60 60 63 62 61 60 60 60 60 61 61 61 61 62 62 63 63 62 63 63 63 64 65 65 65 66 66 67 67 67 66 66 66 66 65 65 65 66 66 65 65 66
61 60 60 59 59 59 60 60 60 60 60 61 61 61 61 61 60 60 60 60 60 59 60 60 60 61 60 60 60 61 61 61 62 62 62 63 62 62 62 62 62 63 63 64 64 66 66 66 67 66 66 66 66 66 65 65 65 65 64 62 63 64 64
60 60 60 60 59 59 60 61 60 60 60 60 61 61 61 60 60 60 60 60 59 59 60 59 60 60 60 60 60 61 61 61 62 62 62 62 62 62 61 61 62 63 63 64 64 65 66 66 66 66 66 65 65 65 65 65 66 63 58 60 62 62 63
60 60 59 60 60 60 60 60 60 59 60 60 60 61 61 60 60 60 59 59 59 59 60 59 59 59 59 60 61 61 61 61 62 61 62 62 61 61 62 62 62 62 63 63 64 64 65 65 65 66 65 65 64 64 65 65 65 60 60 61 62 63 62
59 59 59 60 60 60 59 59 58 59 60 60 61 60 60 59 59 59 59 59 59 60 60 58 59 60 60 61 61 61 61 61 61 61 62 61 62 62 62 62 62 62 62 63 63 64 65 64 65 65 65 65 64 64 65 65 62 60 60 61 61 62 61
60 60 60 60 60 60 60 60 60 60 61 61 61 61 60 60 59 59 60 59 61 59 59 60 60 59 60 60 60 60 60 60 60 61 61 61 62 62 62 61 62 62 62 63 64 64 64 64 64 64 64 64 64 64 65 65 62 60 58 59 60 61 62
61 62 61 61 61 62 61 60 61 62 62 62 62 62 62 61 61 61 61 62 60 59 59 59 60 59 60 60 60 60 60 60 59 60 61 61 61 61 61 61 62 62 62 63 63 63 63 63 63 63 64 64 64 63 64 64 61 58 57 57 57 60 62
61 61 61 60 60 60 61 61 61 61 61 61 62 62 61 61 62 62 60 60 60 60 59 59 59 59 59 59 60 60 60 59 59 59 60 61 61 61 62 62 62 62 62 62 62 62 62 62 62 63 64 64 64 64 64 65 60 57 56 55 56 58 62
63 62 61 62 62 61 61 61 62 63 63 64 63 63 62 63 63 61 62 60 60 60 59 59 58 60 59 59 60 60 60 59 58 59 60 61 61 61 62 62 62 62 62 62 62 62 62 63 63 63 63 64 64 63 63 64 60 56 55 55 56 58 63
66 64 65 64 64 63 63 64 64 64 64 63 63 63 63 63 62 62 62 60 61 60 60 59 59 60 60 61 61 61 61 59 58 59 60 61 61 61 61 62 62 62 61 61 61 61 62 62 62 63 63 63 64 63 63 63 61 56 53 54 56 58 63
65 66 64 62 61 62 63 64 64 64 64 63 63 63 63 62 61 61 61 61 61 59 60 59 60 61 61 61 61 61 60 59 59 59 60 60 60 61 62 62 62 61 61 60 60 60 62 62 62 62 62 63 63 64 63 63 61 55 52 53 55 56 62
64 64 62 63 64 63 63 64 64 64 63 61 62 63 62 61 61 61 61 62 61 59 59 59 60 61 61 62 62 60 60 60 59 60 60 60 60 61 62 62 62 63 61 60 60 61 61 63 62 62 61 62 63 65 64 64 62 57 53 52 53 58 61
62 62 62 63 64 65 66 65 63 63 62 62 62 63 62 61 60 62 63 62 60 59 60 61 62 63 62 61 61 60 60 60 60 60 60 60 61 62 62 63 62 61 61 60 59 60 60 61 61 60 61 62 62 63 63 64 64 62 52 51 52 54 60
64 65 65 65 65 68 62 63 63 64 64 64 64 62 61 61 60 61 63 63 60 61 62 63 62 61 61 61 60 60 60 59 59 59 60 60 61 62 63 62 60 60 60 60 60 58 59 60 60 61 61 62 62 63 63 64 64 63 54 51 51 53 55
64 64 64 66 68 67 62 62 61 62 62 62 62 61 61 61 61 63 61 60 61 62 64 62 61 61 61 61 60 60 59 60 60 60 62 61 61 60 60 61 60 60 60 59 58 58 57 59 59 59 59 60 61 62 62 63 65 61 59 54 50 51 52
64 65 65 63 63 66 65 62 62 62 64 64 61 61 60 60 61 61 61 60 62 63 61 61 61 61 61 60 60 60 60 59 59 60 61 61 60 58 59 59 59 60 60 59 59 59 58 58 58 58 57 58 60 61 62 62 63 61 61 56 51 49 51
64 64 63 65 67 65 66 63 62 63 63 63 61 60 60 60 61 61 60 60 63 61 60 60 60 60 60 62 61 59 58 59 59 59 58 58 58 58 58 59 58 59 60 58 58 57 58 57 58 57 57 57 59 60 61 61 61 61 60 60 55 51 49
64 64 64 64 65 66 65 63 62 62 61 60 59 58 58 59 60 62 61 62 61 60 61 61 60 60 61 61 60 58 57 58 57 57 57 57 58 58 60 59 57 58 59 58 58 58 57 57 58 57 57 57 58 58 60 60 60 61 61 61 60 55 51
61 61 62 62 61 64 64 61 60 59 60 61 59 59 59 58 59 60 61 61 61 60 60 60 60 60 61 61 58 57 57 58 57 56 56 58 58 57 57 57 58 57 58 57 57 57 58 58 58 58 58 57 56 58 59 60 60 60 61 62 61 59 54
61 61 62 62 62 65 62 59 59 59 60 60 61 60 60 59 59 61 62 61 61 62 60 59 60 61 61 60 58 57 57 57 57 57 56 56 57 57 58 58 56 56 58 57 56 57 57 59 59 59 58 57 57 57 58 59 60 60 60 59 58 61 61
61 60 60 61 61 62 58 59 59 60 60 61 61 59 60 61 61 61 60 62 63 62 60 60 61 61 60 59 58 58 58 57 66 63 56 57 56 57 57 58 58 57 57 58 57 55 57 57 57 57 58 57 57 57 57 58 59 59 55 57 55 56 57
60 61 61 59 59 62 60 59 59 59 60 61 61 59 58 59 60 61 60 61 62 59 60 61 63 62 59 58 57 59 63 59 59 58 57 57 56 56 56 56 58 57 57 56 57 56 57 57 56 58 57 57 56 55 57 58 58 56 46 48 45 46 50
57 58 57 58 59 59 59 59 58 58 59 60 59 58 58 58 59 59 62 61 61 60 60 61 61 60 60 57 57 58 60 60 58 58 59 57 56 57 58 63 55 55 58 58 58 50 46 47 53 52 50 52 55 57 57 58 57 46 40 40 40 40 40
57 57 57 57 57 56 57 57 59 59 58 59 59 58 59 59 59 59 59 59 59 59 60 60 61 60 59 59 58 59 60 60 59 59 56 56 55 55 55 57 57 50 49 54 56 47 43 43 42 43 45 48 52 54 50 47 43 40 39 40 40 39 39
55 55 56 56 56 56 57 57 57 58 59 58 58 58 57 58 59 59 59 58 59 58 59 60 61 60 59 59 58 60 62 59 59 60 58 56 55 55 54 55 54 59 53 50 50 46 42 41 41 41 42 41 42 45 51 46 41 39 39 40 40 40 39
MSLP
1016.02 1016.10 1016.10 1015.82 1015.82 1015.78 1015.74 1015.62 1015.62 1015.78 1015.90 1015.90 1015.82 1015.74 1015.62 1015.54 1015.46 1015.50 1015.46 1015.50 1015.50 1015.42 1015.34 1015.34 1015.34 1015.26 1015.22 1015.06 1014.86 1014.82 1014.78 1014.66 1014.54 1014.50 1014.46 1014.38 1014.22 1014.14 1014.14 1014.06 1014.06 1013.94 1013.74 1013.62 1013.34 1013.22 1012.98 1012.78 1012.70 1012.50 1012.26 1012.10 1012.06 1012.06 1012.14 1012.18 1012.26 1012.22 1012.14 1012.10 1012.14 1012.26 1012.38
1016.02 1015.98 1015.98 1015.90 1015.82 1015.90 1015.70 1015.58 1015.70 1015.90 1015.94 1015.86 1015.74 1015.70 1015.70 1015.62 1015.62 1015.54 1015.50 1015.54 1015.42 1015.34 1015.30 1015.34 1015.30 1015.26 1015.18 1015.02 1014.90 1014.86 1014.82 1014.62 1014.50 1014.38 1014.30 1014.22 1013.98 1013.86 1013.78 1013.78 1013.82 1013.74 1013.62 1013.50 1013.34 1013.10 1012.94 1012.82 1012.70 1012.58 1012.46 1012.34 1012.30 1012.10 1012.02 1011.94 1011.94 1011.98 1011.98 1011.94 1012.02 1012.06 1012.10
1015.98 1015.98 1015.94 1015.86 1015.90 1015.74 1015.54 1015.74 1015.90 1015.82 1015.74 1015.70 1015.70 1015.78 1015.74 1015.62 1015.58 1015.46 1015.54 1015.58 1015.38 1015.30 1015.30 1015.26 1015.22 1015.18 1015.10 1015.02 1014.94 1014.78 1014.74 1014.58 1014.46 1014.34 1014.26 1014.14 1013.90 1013.70 1013.54 1013.50 1013.46 1013.46 1013.26 1013.10 1013.06 1012.94 1012.74 1012.62 1012.46 1012.34 1012.22 1012.18 1012.06 1012.02 1011.86 1011.70 1011.54 1011.58 1011.62 1011.66 1011.70 1011.70 1011.66
1015.86 1015.86 1015.70 1015.62 1015.62 1015.46 1015.30 1015.38 1015.58 1015.70 1015.70 1015.58 1015.58 1015.62 1015.66 1015.58 1015.50 1015.42 1015.42 1015.38 1015.34 1015.38 1015.34 1015.18 1015.18 1015.14 1015.06 1015.02 1014.90 1014.74 1014.62 1014.54 1014.46 1014.34 1014.14 1013.94 1013.86 1013.66 1013.54 1013.38 1013.26 1013.18 1013.10 1013.02 1012.86 1012.74 1012.58 1012.50 1012.42 1012.34 1012.22 1012.14 1012.02 1011.86 1011.74 1011.62 1011.46 1011.38 1011.30 1011.30 1011.30 1011.22 1011.18
1015.86 1015.78 1015.82 1015.86 1015.70 1015.54 1015.54 1015.58 1015.66 1015.58 1015.58 1015.50 1015.54 1015.50 1015.50 1015.42 1015.42 1015.46 1015.50 1015.38 1015.26 1015.30 1015.18 1015.14 1015.06 1015.02 1014.98 1014.94 1014.82 1014.66 1014.58 1014.50 1014.38 1014.26 1014.10 1013.90 1013.70 1013.62 1013.58 1013.42 1013.26 1013.14 1012.98 1012.82 1012.66 1012.58 1012.54 1012.46 1012.38 1012.30 1012.30 1012.22 1012.06 1011.90 1011.78 1011.62 1011.50 1011.26 1011.14 1011.02 1010.94 1010.78 1010.78
1015.66 1015.70 1015.70 1015.70 1015.54 1015.50 1015.38 1015.30 1015.46 1015.42 1015.42 1015.54 1015.54 1015.50 1015.46 1015.42 1015.46 1015.58 1015.46 1015.30 1015.30 1015.18 1015.14 1015.06 1014.98 1014.90 1014.90 1014.82 1014.74 1014.66 1014.54 1014.42 1014.30 1014.14 1014.06 1013.86 1013.74 1013.66 1013.54 1013.34 1013.18 1013.02 1012.82 1012.70 1012.54 1012.46 1012.34 1012.34 1012.30 1012.18 1012.18 1012.06 1011.94 1011.78 1011.54 1011.46 1011.22 1011.02 1010.82 1010.70 1010.58 1010.42 1010.38
1015.30 1015.42 1015.54 1015.50 1015.38 1015.26 1015.22 1015.26 1015.54 1015.46 1015.42 1015.38 1015.38 1015.34 1015.34 1015.46 1015.50 1015.38 1015.30 1015.26 1015.22 1015.18 1015.06 1015.02 1014.90 1014.86 1014.82 1014.70 1014.62 1014.58 1014.54 1014.42 1014.26 1014.10 1013.98 1013.86 1013.70 1013.62 1013.42 1013.26 1013.06 1012.90 1012.74 1012.54 1012.46 1012.30 1012.30 1012.22 1012.10 1012.02 1011.94 1011.82 1011.66 1011.42 1011.14 1010.98 1010.82 1010.62 1010.42 1010.26 1010.10 1009.98 1009.90
1014.90 1015.30 1015.38 1015.22 1015.14 1015.02 1015.18 1015.38 1015.58 1015.50 1015.46 1015.46 1015.42 1015.46 1015.58 1015.54 1015.54 1015.42 1015.30 1015.18 1015.22 1015.18 1015.10 1015.02 1014.90 1014.82 1014.74 1014.62 1014.50 1014.46 1014.38 1014.26 1014.10 1013.98 1013.90 1013.82 1013.66 1013.54 1013.34 1013.14 1012.94 1012.70 1012.58 1012.58 1012.30 1012.18 1012.10 1012.02 1011.86 1011.74 1011.62 1011.50 1011.30 1011.10 1010.82 1010.58 1010.46 1010.22 1010.10 1009.98 1009.70 1009.46 1009.30
1014.82 1014.90 1014.94 1014.94 1014.90 1015.06 1015.14 1015.38 1015.38 1015.30 1015.30 1015.38 1015.42 1015.46 1015.54 1015.54 1015.50 1015.34 1015.22 1015.14 1015.18 1015.14 1015.06 1014.90 1014.78 1014.74 1014.66 1014.62 1014.46 1014.26 1014.22 1014.18 1014.06 1013.94 1013.86 1013.78 1013.58 1013.46 1013.26 1013.02 1012.82 1012.58 1012.50 1012.34 1012.18 1012.02 1011.98 1011.82 1011.62 1011.46 1011.34 1011.22 1010.94 1010.70 1010.46 1010.22 1010.06 1009.90 1009.78 1009.62 1009.34 1009.06 1008.78
1014.86 1015.06 1014.98 1014.82 1014.82 1014.98 1015.26 1015.50 1015.38 1015.38 1015.50 1015.50 1015.50 1015.54 1015.54 1015.50 1015.38 1015.26 1015.18 1015.06 1015.06 1015.06 1014.90 1014.82 1014.70 1014.70 1014.70 1014.58 1014.42 1014.26 1014.10 1014.02 1013.94 1013.90 1013.82 1013.66 1013.50 1013.34 1013.06 1012.86 1012.66 1012.46 1012.34 1012.14 1011.98 1011.90 1011.66 1011.54 1011.42 1011.22 1011.10 1010.98 1010.66 1010.34 1010.10 1009.86 1009.66 1009.50 1009.34 1009.14 1008.90 1008.66 1008.38
1014.78 1014.74 1014.70 1014.82 1014.82 1014.98 1015.42 1015.46 1015.26 1015.26 1015.26 1015.26 1015.30 1015.34 1015.42 1015.38 1015.22 1015.10 1014.98 1014.86 1014.86 1014.78 1014.66 1014.62 1014.54 1014.58 1014.54 1014.50 1014.34 1014.14 1014.06 1013.86 1013.82 1013.78 1013.66 1013.54 1013.34 1013.22 1012.98 1012.78 1012.58 1012.38 1012.22 1012.02 1011.86 1011.66 1011.50 1011.30 1011.06 1011.02 1010.86 1010.70 1010.42 1010.10 1009.74 1009.54 1009.34 1009.18 1008.94 1008.66 1008.34 1008.14 1007.98
1014.66 1014.74 1014.62 1014.58 1014.82 1015.22 1015.18 1014.86 1014.94 1015.10 1015.02 1015.06 1015.14 1015.18 1015.22 1015.18 1015.02 1014.86 1014.74 1014.66 1014.58 1014.50 1014.42 1014.34 1014.30 1014.34 1014.34 1014.30 1014.26 1014.06 1013.90 1013.74 1013.66 1013.58 1013.50 1013.34 1013.22 1013.02 1012.86 1012.70 1012.50 1012.30 1012.06 1011.90 1011.74 1011.50 1011.30 1011.10 1010.90 1010.82 1010.62 1010.38 1010.10 1009.82 1009.50 1009.22 1009.06 1008.90 1008.62 1008.26 1007.94 1007.70 1007.58
1014.38 1014.46 1014.46 1014.58 1014.70 1014.94 1015.06 1015.02 1014.94 1014.74 1014.78 1014.82 1014.94 1015.02 1014.98 1014.90 1014.82 1014.74 1014.66 1014.54 1014.38 1014.26 1014.18 1014.10 1014.10 1014.06 1014.14 1014.10 1014.10 1013.98 1013.74 1013.58 1013.50 1013.42 1013.30 1013.14 1013.02 1012.82 1012.70 1012.54 1012.38 1012.22 1012.02 1011.70 1011.58 1011.42 1011.18 1010.90 1010.74 1010.50 1010.38 1010.10 1009.86 1009.66 1009.34 1009.02 1008.78 1008.50 1008.30 1007.94 1007.62 1007.42 1007.30
1014.22 1014.46 1014.66 1014.86 1015.02 1015.02 1014.70 1014.70 1014.74 1014.70 1014.66 1014.78 1014.86 1014.86 1014.82 1014.74 1014.66 1014.62 1014.58 1014.46 1014.18 1014.06 1014.02 1013.90 1013.90 1013.90 1013.94 1013.94 1013.86 1013.70 1013.50 1013.34 1013.26 1013.18 1013.06 1012.94 1012.78 1012.66 1012.50 1012.34 1012.18 1012.02 1011.82 1011.62 1011.42 1011.26 1011.02 1010.86 1010.66 1010.34 1010.14 1009.86 1009.66 1009.38 1009.14 1008.90 1008.62 1008.38 1008.10 1007.82 1007.58 1007.34 1007.18
1014.38 1014.54 1014.70 1014.82 1014.70 1014.58 1014.54 1014.62 1014.62 1014.54 1014.54 1014.58 1014.70 1014.82 1014.82 1014.78 1014.70 1014.62 1014.50 1014.34 1014.10 1013.98 1013.86 1013.78 1013.86 1013.82 1013.82 1013.82 1013.70 1013.38 1013.22 1013.10 1013.02 1012.94 1012.86 1012.70 1012.58 1012.46 1012.26 1012.10 1011.94 1011.78 1011.62 1011.34 1011.14 1010.98 1010.82 1010.62 1010.46 1010.30 1010.06 1009.74 1009.50 1009.26 1009.06 1008.86 1008.62 1008.42 1008.30 1008.06 1007.70 1007.42 1007.18
1014.34 1014.42 1014.42 1014.22 1014.22 1014.22 1014.26 1014.18 1014.22 1014.22 1014.34 1014.62 1014.78 1014.78 1014.82 1014.74 1014.66 1014.50 1014.34 1014.14 1013.98 1013.90 1013.74 1013.78 1013.78 1013.78 1013.70 1013.66 1013.42 1013.14 1012.98 1012.90 1012.82 1012.70 1012.62 1012.54 1012.38 1012.22 1012.10 1011.94 1011.74 1011.58 1011.38 1011.06 1010.82 1010.78 1010.62 1010.46 1010.30 1010.10 1009.90 1009.66 1009.38 1009.22 1009.02 1008.78 1008.46 1008.26 1008.18 1008.06 1007.78 1007.30 1007.06
1013.98 1013.98 1013.82 1013.78 1013.98 1013.98 1014.02 1014.02 1013.94 1014.18 1014.42 1014.54 1014.74 1014.70 1014.62 1014.50 1014.38 1014.26 1014.18 1013.98 1013.90 1013.82 1013.58 1013.70 1013.70 1013.70 1013.70 1013.46 1013.18 1013.02 1012.86 1012.74 1012.58 1012.54 1012.46 1012.26 1012.22 1012.06 1011.90 1011.74 1011.58 1011.46 1011.22 1010.94 1010.66 1010.62 1010.38 1010.30 1010.18 1009.86 1009.66 1009.50 1009.54 1009.38 1009.02 1008.70 1008.30 1008.02 1007.82 1007.66 1007.46 1007.22 1006.86
1013.62 1013.58 1013.54 1013.62 1013.74 1013.90 1013.90 1013.70 1013.94 1014.10 1014.22 1014.38 1014.46 1014.50 1014.42 1014.34 1014.18 1014.14 1013.98 1013.78 1013.74 1013.54 1013.46 1013.62 1013.62 1013.54 1013.38 1013.22 1013.14 1012.98 1012.74 1012.58 1012.50 1012.46 1012.30 1012.14 1012.02 1011.82 1011.70 1011.58 1011.42 1011.30 1011.14 1010.90 1010.58 1010.38 1010.30 1010.22 1009.94 1009.66 1009.50 1009.38 1009.42 1009.26 1008.94 1008.58 1008.18 1007.90 1007.70 1007.38 1006.86 1006.46 1006.10
1013.02 1013.10 1012.94 1013.30 1013.58 1013.50 1013.26 1013.26 1013.46 1013.66 1013.94 1014.14 1014.18 1014.22 1014.02 1013.78 1013.86 1013.86 1013.58 1013.54 1013.34 1013.34 1013.42 1013.34 1013.30 1013.30 1013.22 1013.02 1013.02 1012.82 1012.62 1012.50 1012.46 1012.34 1012.22 1012.02 1011.86 1011.70 1011.58 1011.46 1011.26 1011.10 1010.94 1010.74 1010.46 1010.26 1010.18 1009.94 1009.78 1009.58 1009.38 1009.38 1009.38 1009.18 1008.82 1008.54 1008.10 1007.86 1007.66 1007.26 1006.74 1006.14 1005.54
1012.66 1012.46 1012.70 1013.02 1012.94 1012.74 1012.86 1013.26 1013.46 1013.58 1013.58 1013.62 1013.66 1013.58 1013.34 1013.38 1013.34 1013.18 1013.06 1013.10 1013.14 1013.26 1013.18 1013.14 1013.06 1013.06 1012.94 1012.90 1012.82 1012.62 1012.50 1012.42 1012.38 1012.26 1012.10 1011.94 1011.82 1011.66 1011.54 1011.38 1011.14 1010.86 1010.70 1010.54 1010.34 1010.26 1010.02 1009.78 1009.66 1009.46 1009.38 1009.30 1009.26 1009.14 1008.78 1008.46 1008.02 1007.78 1007.62 1007.18 1006.66 1006.02 1005.26
1012.42 1012.38 1012.46 1012.70 1012.90 1012.90 1012.90 1012.90 1013.14 1013.38 1013.58 1013.58 1013.46 1013.34 1013.26 1013.26 1013.10 1012.90 1013.02 1013.06 1013.06 1012.98 1012.98 1012.98 1012.94 1012.82 1012.78 1012.78 1012.58 1012.50 1012.42 1012.38 1012.38 1012.26 1012.06 1011.90 1011.74 1011.58 1011.38 1011.22 1010.94 1010.70 1010.50 1010.34 1010.22 1010.02 1009.86 1009.66 1009.50 1009.34 1009.30 1009.18 1009.06 1009.02 1008.78 1008.34 1007.94 1007.78 1007.54 1007.06 1006.50 1005.86 1005.02
1011.78 1012.14 1012.26 1012.14 1011.94 1012.38 1012.62 1012.82 1012.74 1012.82 1012.82 1012.82 1013.10 1012.94 1012.94 1012.70 1012.66 1012.90 1012.78 1012.78 1012.86 1012.74 1012.82 1012.82 1012.86 1012.78 1012.66 1012.62 1012.42 1012.30 1012.26 1012.30 1012.22 1012.06 1011.94 1011.78 1011.62 1011.50 1011.26 1011.02 1010.82 1010.66 1010.34 1010.18 1009.90 1009.70 1009.58 1009.38 1009.34 1009.26 1009.14 1009.02 1008.94 1008.90 1008.70 1008.14 1007.78 1007.66 1007.46 1006.94 1006.34 1005.70 1004.90
1011.06 1011.38 1011.18 1011.34 1011.66 1011.86 1011.98 1012.14 1012.30 1012.22 1012.34 1012.54 1012.54 1012.58 1012.66 1012.50 1012.66 1012.66 1012.58 1012.66 1012.62 1012.66 1012.66 1012.74 1012.78 1012.58 1012.42 1012.38 1012.18 1012.06 1011.98 1012.02 1012.06 1011.94 1011.82 1011.70 1011.62 1011.42 1011.14 1010.90 1010.62 1010.38 1010.26 1010.14 1009.82 1009.58 1009.38 1009.22 1009.06 1008.94 1008.90 1008.82 1008.78 1008.78 1008.54 1008.06 1007.66 1007.50 1007.34 1006.86 1006.26 1005.70 1005.10
1010.98 1010.98 1011.14 1011.42 1011.70 1011.86 1012.02 1011.98 1011.98 1012.10 1012.26 1012.14 1012.22 1012.22 1012.26 1012.42 1012.50 1012.50 1012.50 1012.42 1012.42 1012.58 1012.58 1012.66 1012.58 1012.34 1012.26 1012.14 1011.94 1011.78 1011.74 1011.70 1011.78 1011.82 1011.66 1011.58 1011.50 1011.30 1011.02 1010.74 1010.58 1010.46 1010.18 1010.14 1009.90 1009.54 1009.22 1009.06 1008.86 1008.66 1008.66 1008.62 1008.62 1008.54 1008.46 1008.06 1007.58 1007.46 1007.26 1006.98 1006.42 1006.10 1005.58
1010.94 1011.02 1011.10 1011.14 1011.26 1011.54 1011.70 1011.66 1011.70 1011.82 1012.06 1012.10 1012.10 1012.02 1012.14 1012.22 1012.30 1012.38 1012.34 1012.26 1012.34 1012.50 1012.54 1012.42 1012.26 1012.10 1011.98 1011.78 1011.62 1011.58 1011.54 1011.54 1011.58 1011.58 1011.54 1011.50 1011.34 1011.18 1011.02 1010.74 1010.54 1010.26 1010.06 1009.98 1009.78 1009.54 1009.18 1008.98 1008.82 1008.58 1008.50 1008.46 1008.38 1008.30 1008.26 1007.98 1007.58 1007.38 1007.26 1007.06 1006.74 1006.30 1005.90
1010.90 1010.98 1011.02 1011.06 1011.10 1010.90 1010.94 1011.26 1011.82 1011.98 1011.90 1011.86 1011.58 1011.46 1011.82 1011.98 1012.10 1012.10 1012.10 1012.10 1012.26 1012.42 1012.30 1012.06 1011.82 1011.62 1011.58 1011.54 1011.50 1011.46 1011.38 1011.42 1011.46 1011.34 1011.34 1011.30 1011.10 1010.94 1010.82 1010.62 1010.38 1010.18 1009.98 1009.78 1009.66 1009.42 1009.06 1008.86 1008.74 1008.66 1008.38 1008.30 1008.18 1008.14 1008.06 1007.94 1007.58 1007.30 1007.22 1007.06 1006.82 1006.54 1006.10
1010.34 1010.26 1010.30 1010.74 1010.82 1010.98 1011.26 1011.38 1011.38 1011.34 1011.22 1011.14 1011.06 1011.38 1011.58 1011.74 1011.82 1011.90 1011.86 1011.94 1012.18 1012.10 1011.78 1011.46 1011.42 1011.42 1011.38 1011.38 1011.38 1011.30 1011.26 1011.30 1011.26 1011.18 1011.02 1011.02 1010.94 1010.78 1010.58 1010.38 1010.34 1010.06 1009.86 1009.70 1009.62 1009.42 1009.02 1008.82 1008.70 1008.58 1008.30 1008.14 1008.06 1007.98 1007.86 1007.74 1007.62 1007.34 1007.22 1007.14 1006.90 1006.62 1006.34
1010.30 1010.50 1010.50 1010.54 1010.62 1010.78 1011.02 1011.18 1011.30 1011.22 1011.14 1010.98 1011.10 1011.26 1011.38 1011.38 1011.58 1011.62 1011.74 1011.94 1011.94 1011.54 1011.18 1011.30 1011.30 1011.22 1011.26 1011.22 1011.14 1011.22 1011.22 1011.06 1010.90 1010.98 1010.90 1010.74 1010.70 1010.58 1010.34 1010.14 1010.14 1010.06 1009.90 1009.70 1009.62 1009.50 1009.22 1008.94 1008.82 1008.66 1008.42 1008.06 1007.94 1007.86 1007.78 1007.62 1007.54 1007.42 1007.22 1007.10 1007.02 1006.74 1006.58
1010.14 1010.10 1010.30 1010.58 1010.70 1010.54 1010.58 1010.90 1010.98 1010.86 1010.62 1010.66 1010.98 1011.14 1011.22 1011.26 1011.42 1011.54 1011.70 1011.86 1011.38 1011.02 1011.10 1011.18 1011.18 1011.14 1011.14 1011.02 1010.94 1011.02 1010.94 1010.82 1010.82 1010.78 1010.70 1010.58 1010.54 1010.50 1010.38 1010.22 1010.10 1009.90 1009.82 1009.70 1009.50 1009.38 1009.30 1009.06 1008.94 1008.82 1008.58 1008.18 1007.86 1007.74 1007.62 1007.54 1007.50 1007.42 1007.22 1007.02 1006.98 1006.86 1006.54
1009.82 1009.94 1010.06 1010.02 1009.86 1010.06 1010.26 1010.38 1010.50 1010.54 1010.50 1010.70 1010.86 1011.02 1011.18 1011.30 1011.42 1011.54 1011.66 1011.38 1010.82 1010.94 1011.06 1011.06 1010.98 1011.02 1010.94 1010.74 1010.66 1010.78 1010.70 1010.66 1010.70 1010.74 1010.62 1010.46 1010.38 1010.34 1010.30 1010.18 1010.10 1009.94 1009.86 1009.78 1009.66 1009.50 1009.30 1009.10 1008.98 1008.90 1008.66 1008.50 1008.06 1007.74 1007.58 1007.46 1007.42 1007.26 1007.18 1007.02 1006.86 1006.90 1006.62
1009.62 1009.62 1009.62 1009.70 1009.70 1009.78 1009.98 1010.18 1010.22 1010.34 1010.50 1010.62 1010.78 1011.02 1011.14 1011.26 1011.38 1011.34 1011.42 1010.90 1010.74 1010.94 1010.82 1010.74 1010.78 1010.78 1010.74 1010.58 1010.54 1010.58 1010.50 1010.58 1010.62 1010.58 1010.38 1010.30 1010.34 1010.30 1010.26 1010.14 1010.10 1010.02 1009.78 1009.78 1009.66 1009.54 1009.38 1009.18 1009.06 1008.94 1008.78 1008.58 1008.30 1007.90 1007.62 1007.46 1007.34 1007.18 1007.02 1006.90 1006.82 1006.78 1006.70
1009.70 1009.66 1009.70 1009.70 1009.78 1009.86 1009.90 1010.10 1010.22 1010.46 1010.38 1010.34 1010.62 1010.82 1010.98 1011.18 1011.26 1011.26 1010.90 1010.58 1010.70 1010.66 1010.70 1010.66 1010.66 1010.66 1010.54 1010.42 1010.42 1010.30 1010.34 1010.46 1010.46 1010.34 1010.26 1010.18 1010.18 1010.26 1010.26 1010.26 1010.14 1010.10 1009.90 1009.78 1009.62 1009.46 1009.34 1009.22 1009.02 1008.82 1008.70 1008.58 1008.38 1008.06 1007.70 1007.50 1007.38 1007.14 1006.94 1006.86 1006.86 1006.78 1006.74
1009.30 1009.34 1009.42 1009.54 1009.42 1009.54 1009.98 1010.26 1010.42 1010.46 1010.50 1010.34 1010.18 1010.46 1010.66 1010.86 1010.98 1010.82 1010.58 1010.62 1010.50 1010.42 1010.42 1010.46 1010.38 1010.34 1010.30 1010.30 1010.18 1010.06 1010.10 1010.30 1010.34 1010.22 1010.14 1010.10 1010.06 1010.10 1010.14 1010.10 1010.06 1010.02 1009.86 1009.74 1009.66 1009.46 1009.22 1009.14 1008.98 1008.74 1008.58 1008.46 1008.34 1008.14 1007.90 1007.54 1007.38 1007.22 1007.06 1006.94 1007.02 1006.98 1006.78
1009.22 1009.42 1009.38 1009.26 1009.50 1009.78 1010.06 1010.26 1010.26 1010.34 1010.46 1010.30 1010.06 1010.22 1010.34 1010.46 1010.50 1010.46 1010.50 1010.38 1010.26 1010.14 1010.22 1010.22 1010.18 1010.14 1010.02 1010.06 1009.90 1009.86 1009.98 1010.14 1010.06 1010.10 1010.10 1010.02 1010.02 1010.02 1009.90 1009.82 1009.86 1009.86 1009.86 1009.82 1009.78 1009.66 1009.38 1009.18 1008.94 1008.78 1008.62 1008.46 1008.26 1008.14 1008.02 1007.86 1007.62 1007.74 1007.86 1007.74 1007.58 1007.42 1007.22
1009.10 1008.94 1009.02 1009.34 1009.50 1009.66 1009.78 1009.94 1010.26 1010.34 1010.38 1010.14 1010.02 1010.22 1010.38 1010.34 1010.18 1010.14 1010.18 1010.10 1009.94 1009.94 1010.02 1009.98 1009.98 1010.10 1010.06 1009.86 1009.78 1009.78 1009.78 1009.90 1009.94 1009.94 1009.98 1009.90 1009.90 1009.94 1010.02 1009.86 1009.82 1009.74 1009.70 1009.74 1009.74 1009.74 1009.58 1009.30 1009.06 1008.78 1008.70 1008.66 1008.34 1008.14 1007.94 1007.86 1007.78 1007.86 1008.94 1008.66 1008.74 1008.82 1008.42
1009.62 1009.62 1009.58 1009.66 1009.78 1009.86 1009.98 1010.22 1010.26 1010.34 1010.30 1010.10 1010.22 1010.34 1010.30 1010.06 1009.90 1009.98 1010.02 1009.90 1009.82 1009.82 1009.94 1009.86 1009.82 1009.94 1010.02 1009.90 1009.82 1009.74 1009.78 1009.86 1009.86 1009.86 1009.86 1009.86 1009.86 1009.86 1009.78 1009.78 1009.78 1009.74 1009.66 1009.66 1009.78 1009.90 1010.02 1009.86 1009.38 1009.42 1009.46 1008.98 1008.34 1008.22 1008.06 1007.90 1007.90 1008.58 1008.74 1008.58 1008.50 1008.62 1008.62
1009.66 1009.74 1009.98 1010.26 1010.26 1010.30 1010.38 1010.46 1010.50 1010.46 1010.38 1010.22 1010.22 1010.18 1010.14 1010.10 1009.86 1009.70 1009.70 1009.74 1009.66 1009.74 1009.82 1009.78 1009.78 1009.78 1009.74 1009.86 1009.82 1009.70 1009.62 1009.70 1009.74 1009.74 1009.78 1009.78 1009.86 1010.02 1010.02 1009.74 1009.62 1009.74 1009.70 1009.62 1009.66 1009.86 1010.02 1009.94 1009.90 1009.90 1009.86 1009.66 1008.86 1008.74 1008.82 1008.98 1009.06 1008.94 1008.62 1008.26 1008.06 1008.02 1008.18
1010.06 1010.10 1010.06 1010.10 1010.18 1010.26 1010.26 1010.30 1010.34 1010.30 1010.18 1010.10 1010.22 1010.26 1010.22 1010.06 1009.82 1009.74 1009.66 1009.66 1009.62 1009.66 1009.70 1009.70 1009.70 1009.70 1009.62 1009.58 1009.54 1009.54 1009.50 1009.54 1009.58 1009.62 1009.66 1009.66 1009.86 1009.94 1009.94 1009.98 1009.90 1009.58 1009.66 1009.66 1009.54 1009.74 1009.74 1009.62 1009.58 1009.62 1009.70 1009.90 1009.94 1009.50 1008.94 1009.10 1009.22 1009.10 1008.66 1008.34 1008.02 1007.82 1007.74
Wind_Speed
6 6 5 7 7 7 7 5 4 3 4 4 3 3 1 1 1 2 3 2 2 2 3 2 3 4 4 5 6 4 4 5 4 6 5 5 5 5 5 3 4 5 5 5 5 5 6 5 6 7 7 8 8 7 6 5 6 7 7 7 7 7 9
8 7 7 7 7 5 4 4 2 3 4 4 4 3 1 1 2 2 2 1 1 1 1 2 3 3 3 4 5 4 4 5 4 5 5 5 5 5 4 4 4 5 4 4 5 6 5 5 5 6 7 6 6 6 7 7 7 6 7 7 8 8 8
7 8 8 7 6 6 5 3 1 4 4 4 3 2 3 3 3 4 3 3 1 0 1 2 3 3 3 3 3 4 3 3 4 5 5 6 6 6 5 4 4 5 6 5 4 5 4 6 5 5 6 6 7 7 8 9 8 7 7 8 9 9 10
9 9 9 7 6 5 5 4 5 5 4 4 4 4 3 4 3 3 3 3 3 0 1 3 3 3 3 3 3 4 4 3 4 5 6 5 5 4 5 5 4 3 4 4 4 4 5 4 4 5 6 7 8 8 8 8 8 8 8 9 9 10 10
6 6 6 6 5 4 4 5 5 6 6 5 3 3 4 3 3 2 3 2 2 1 1 2 3 2 2 2 2 3 3 3 4 4 5 6 5 5 5 6 6 5 5 5 5 5 4 5 6 5 5 5 7 8 8 9 9 9 9 9 10 10 10
10 9 8 7 6 5 6 5 6 8 7 5 4 4 4 4 3 4 4 2 1 1 1 1 2 2 3 3 2 2 3 3 3 4 4 5 5 5 4 5 6 6 7 6 4 5 5 4 5 5 6 5 7 8 8 9 9 10 11 10 10 10 10
10 8 7 6 6 6 6 6 7 6 4 4 3 3 3 3 4 4 2 1 1 1 0 0 2 3 3 4 3 2 3 3 3 4 4 5 5 5 5 5 5 5 5 6 6 5 5 5 5 5 6 7 7 8 9 9 10 10 11 11 11 11 12
9 8 6 7 6 5 6 5 5 4 2 1 3 3 3 3 3 2 3 2 2 1 1 2 3 3 4 4 3 3 3 3 3 4 3 4 5 5 5 5 5 5 4 5 6 5 6 6 5 5 6 7 7 8 9 10 10 11 11 12 13 12 10
6 7 8 8 7 7 6 5 5 5 5 4 4 4 4 3 3 3 3 3 2 2 3 3 4 3 3 4 4 4 3 3 4 4 4 4 4 4 5 5 6 5 5 5 6 5 5 6 6 6 6 7 8 8 9 10 10 9 10 11 13 13 12
7 6 5 5 5 4 4 4 4 3 4 3 3 4 4 4 4 3 3 3 2 2 3 4 4 3 3 4 4 4 4 4 4 4 4 5 5 5 5 5 6 5 5 5 5 6 7 6 7 7 7 8 9 9 10 10 10 9 10 11 12 12 12
7 7 6 6 5 5 4 4 4 5 4 4 4 4 4 4 4 3 4 3 3 3 3 4 3 3 4 4 5 5 4 5 4 4 5 5 5 5 5 5 5 5 5 6 6 6 6 7 6 7 7 8 9 10 11 10 10 10 10 10 10 10 10
8 7 8 7 5 4 7 6 5 4 4 4 4 4 4 4 4 4 4 4 3 3 3 4 3 3 3 3 4 5 5 5 4 5 5 6 6 6 5 6 5 6 5 5 6 7 7 7 7 7 8 8 8 9 10 10 10 10 10 10 9 9 9
9 8 8 8 7 5 4 4 5 5 4 4 5 4 4 5 4 4 4 4 4 3 3 4 4 4 3 4 4 4 5 5 5 5 5 6 6 6 5 5 5 5 6 5 5 6 7 7 7 7 7 9 8 9 10 11 11 10 10 9 8 8 8
8 5 5 4 4 5 7 6 6 5 5 5 5 5 4 4 4 5 4 5 4 3 3 4 3 4 4 4 5 4 5 5 4 5 5 5 5 5 5 5 5 5 5 5 5 6 6 8 8 8 7 8 8 8 9 10 10 10 9 9 8 7 8
8 8 7 7 7 6 7 7 7 6 6 5 4 5 5 4 4 4 4 4 4 3 4 3 3 4 4 4 5 6 5 5 5 4 5 5 5 6 6 5 5 5 4 4 3 5 6 7 8 8 8 8 7 8 9 10 8 6 8 9 10 8 8
9 10 9 9 8 8 8 9 8 7 6 4 5 6 5 5 5 5 5 5 4 4 5 2 4 4 5 5 6 6 5 5 5 5 4 5 6 6 6 6 5 5 5 4 4 5 7 8 8 7 7 8 8 7 8 7 6 8 12 11 8 8 8
11 10 9 8 8 8 8 7 6 5 5 6 6 7 7 7 6 6 5 4 4 5 5 2 4 4 5 7 6 6 5 5 6 4 5 5 5 6 6 6 5 5 6 6 4 6 7 7 8 8 7 7 6 9 8 7 7 13 15 16 16 11 10
10 9 9 9 9 8 7 6 5 6 7 7 8 8 7 6 6 5 5 5 5 6 4 3 4 5 6 6 6 6 5 5 4 5 6 5 6 6 6 5 5 6 6 6 7 6 6 8 8 7 7 6 6 7 7 8 10 14 15 17 19 20 11
11 9 9 9 9 8 8 8 8 8 8 7 8 8 8 7 5 6 7 5 7 4 4 4 5 5 5 6 5 6 6 4 4 5 6 6 6 6 5 5 6 6 6 7 6 6 7 8 7 7 6 5 6 7 7 7 10 13 16 18 20 22 19
9 10 8 8 9 9 8 6 6 7 9 9 9 10 8 7 8 8 7 6 4 4 5 4 5 4 5 5 5 5 5 4 4 5 6 6 6 6 6 5 6 6 6 6 6 5 7 7 7 5 4 5 5 7 7 7 10 13 15 16 18 20 20
9 9 10 9 7 7 8 9 8 7 7 8 8 7 6 6 7 5 4 5 5 5 5 4 5 5 5 4 5 4 5 4 4 5 5 5 5 6 6 6 6 6 6 5 6 6 6 6 6 4 3 4 5 6 8 7 11 12 15 16 18 21 18
10 10 9 10 11 10 9 9 11 11 11 9 6 7 7 8 7 5 7 4 5 5 5 4 4 5 5 4 5 5 5 4 4 4 5 5 6 6 6 6 6 6 6 5 6 5 4 5 4 4 3 3 4 5 7 7 11 11 14 17 18 20 12
11 11 12 9 9 10 10 10 10 11 8 6 8 7 8 8 5 6 6 5 6 5 5 4 4 6 5 5 5 5 5 4 4 4 5 5 6 6 6 6 7 6 3 5 7 7 6 5 5 3 3 3 3 4 7 7 9 11 13 16 19 15 11
4 6 5 4 4 5 6 8 8 6 7 7 7 8 7 5 5 5 5 6 5 4 5 4 6 6 5 5 6 5 5 4 3 4 5 5 5 6 6 6 5 5 3 4 6 7 7 5 5 4 3 2 2 4 5 6 8 9 11 14 18 15 10
4 4 5 7 9 9 9 10 10 9 6 5 6 8 6 5 5 5 6 6 5 4 4 5 6 5 6 7 6 5 4 4 4 4 4 5 6 5 6 6 6 6 4 4 4 5 6 5 5 5 3 3 3 5 5 6 7 7 10 12 14 14 8
5 4 5 6 6 9 10 7 5 5 7 8 10 7 6 6 5 5 5 6 4 4 6 7 7 7 6 5 5 4 4 3 3 4 4 4 5 5 5 5 5 5 5 4 3 5 5 5 4 5 6 3 3 3 4 5 6 5 9 11 12 13 8
6 8 8 8 9 6 5 6 8 10 10 10 9 5 5 5 5 6 6 5 4 7 8 7 6 5 5 4 4 4 4 4 3 4 5 3 4 4 5 4 4 5 5 5 3 3 4 5 4 4 6 5 3 3 4 3 4 5 7 9 11 12 9
5 4 4 4 6 6 6 6 6 6 6 7 5 5 5 5 5 6 5 4 6 9 8 5 5 5 4 5 4 4 4 4 4 3 4 4 3 3 4 5 4 3 4 5 3 2 3 4 4 5 6 6 4 3 4 4 3 4 6 7 9 10 9
9 10 9 6 6 7 8 8 9 9 10 7 5 5 4 5 5 5 4 5 9 8 5 4 4 5 4 4 4 3 4 4 3 3 3 3 3 2 4 4 5 6 5 5 6 5 4 4 4 4 6 6 6 4 3 3 3 3 4 6 7 8 9
7 7 5 7 9 9 9 9 8 8 7 5 4 4 4 5 6 5 5 9 9 5 4 4 5 4 4 4 4 3 4 2 3 4 4 2 2 3 3 4 4 5 5 5 5 6 6 5 5 4 4 5 7 6 4 3 2 4 5 5 5 6 7
11 11 11 11 12 9 8 9 9 8 6 5 4 3 4 4 5 5 5 6 4 4 4 4 4 4 5 5 4 3 3 2 3 4 3 1 1 3 4 5 4 5 5 4 5 5 5 6 5 5 5 5 6 7 6 5 4 4 5 5 5 3 5
5 5 5 5 5 6 7 6 5 5 6 5 3 3 3 4 5 6 6 3 2 3 4 4 4 5 6 5 3 3 1 2 3 3 2 2 1 2 3 3 4 4 5 4 5 4 4 5 5 5 5 5 6 6 7 6 4 5 5 4 4 3 3
8 9 9 10 10 7 6 5 4 5 5 6 5 4 4 5 6 8 6 4 5 5 4 4 5 5 5 4 4 2 1 2 4 3 2 3 3 3 2 2 2 2 3 4 5 5 5 5 5 6 5 5 6 6 6 6 5 5 5 4 4 4 4
9 6 7 7 3 4 4 5 7 7 6 8 7 4 4 4 6 6 6 6 6 5 3 4 4 5 5 5 4 3 3 4 5 4 4 4 3 4 5 2 1 2 3 3 4 6 6 6 6 5 5 6 6 5 5 6 6 6 8 9 7 5 4
9 10 7 5 4 5 8 7 7 6 6 8 6 4 4 5 5 4 5 6 5 4 3 3 2 3 4 4 3 3 3 3 3 3 4 4 3 3 4 5 2 3 3 1 0 2 3 5 6 5 4 4 5 4 5 4 4 4 3 3 4 5 7
3 3 3 2 1 2 3 3 5 5 6 7 2 2 3 4 4 3 4 4 4 3 3 2 1 2 4 3 3 3 3 3 4 4 5 4 4 4 4 2 2 3 1 0 3 4 4 2 2 5 5 5 5 2 3 5 4 4 4 5 7 7 5
2 2 2 2 1 2 2 2 2 3 5 5 3 3 3 4 5 3 3 3 4 3 4 3 3 3 4 3 4 4 3 4 6 5 4 4 2 1 1 5 3 3 5 4 1 3 1 3 3 3 3 3 4 5 4 6 5 4 4 6 7 7 7
2 1 1 1 1 1 1 3 3 4 6 4 3 3 3 4 4 4 4 3 3 3 3 3 3 3 5 4 4 3 4 4 5 5 4 3 1 0 1 1 4 6 2 1 1 5 4 8 10 10 10 8 6 5 3 5 9 7 5 5 5 5 6
Wind_Direction
163 168 185 184 191 192 193 199 197 177 178 185 199 208 198 165 150 128 103 89 80 30 341 350 333 330 321 309 310 327 319 306 306 301 306 300 292 291 292 278 270 266 274 270 269 254 254 268 273 271 273 269 264 257 243 234 227 223 220 215 212 213 218
174 179 184 191 191 199 208 205 187 164 180 199 205 212 217 198 200 154 148 167 171 114 311 328 328 319 295 292 303 318 324 301 286 291 298 294 290 284 268 270 260 271 259 248 257 268 269 261 250 251 252 254 256 264 265 258 244 227 218 220 223 228 223
180 184 185 190 194 193 206 208 206 199 191 203 217 209 204 200 201 175 183 196 117 357 340 324 317 301 306 303 307 307 300 287 288 287 284 283 287 289 284 261 254 257 269 269 252 252 252 271 266 256 257 263 265 263 266 267 261 245 232 231 236 235 231
185 187 188 190 198 200 201 202 193 199 212 207 200 199 196 204 211 195 194 191 146 231 324 303 303 311 312 313 312 305 307 287 276 289 296 295 289 289 296 296 289 280 282 274 273 275 283 275 273 277 282 286 282 275 268 265 267 262 249 239 240 238 232
189 186 187 193 203 209 224 215 205 196 200 213 206 196 189 200 192 217 245 223 155 177 243 262 276 276 291 284 274 285 293 298 298 296 298 301 302 308 310 308 307 303 289 294 299 294 288 290 290 282 274 271 278 277 274 274 271 266 258 242 240 238 236
184 190 193 195 198 207 216 216 207 193 192 197 197 191 199 193 192 212 219 194 181 268 284 296 302 314 308 286 279 280 289 290 289 294 299 301 305 305 302 299 302 304 308 300 294 284 283 278 276 283 284 270 267 272 269 263 260 260 259 254 245 242 238
183 187 189 194 195 207 216 216 208 196 190 194 193 195 183 190 201 209 202 193 189 179 271 309 286 295 279 288 280 280 283 281 284 286 289 295 296 294 291 290 291 289 285 297 293 289 283 280 277 273 270 276 276 279 278 275 272 265 261 256 248 242 240
177 180 193 190 200 206 209 207 197 176 170 137 153 195 205 220 218 216 222 225 190 203 223 229 272 263 273 275 279 277 275 279 276 281 288 289 294 294 294 295 293 289 294 285 284 284 286 282 276 273 278 276 273 273 275 273 268 269 264 260 257 250 243
179 183 181 193 200 200 201 198 185 176 178 177 187 205 216 215 221 218 233 241 214 196 231 223 239 248 260 270 281 286 273 273 281 287 292 291 288 288 290 291 292 294 294 296 295 292 280 279 277 278 279 283 282 278 276 274 269 264 260 257 251 249 245
176 187 209 212 205 198 191 195 163 153 178 188 211 222 221 222 228 245 250 237 219 220 234 235 240 244 247 260 268 272 290 286 278 283 287 290 283 283 284 287 290 294 290 286 291 291 286 277 278 279 281 284 286 287 285 283 279 272 263 257 252 249 247
182 191 197 208 206 198 179 168 165 190 188 191 205 220 228 223 227 238 241 243 240 240 237 233 246 246 256 261 279 286 286 294 294 292 291 288 287 282 284 285 287 292 293 296 293 287 282 281 278 280 280 283 287 292 294 293 290 285 278 268 256 250 250
188 190 202 201 199 172 183 183 185 192 195 200 206 212 215 221 235 237 250 254 239 248 262 249 243 247 263 270 276 289 296 291 296 293 290 292 292 287 285 286 285 286 283 278 283 285 279 276 282 284 283 284 287 293 296 298 298 292 283 273 261 254 249
186 193 198 198 197 187 156 157 195 201 192 193 198 209 204 209 224 241 246 263 266 245 252 254 244 256 266 276 273 286 288 287 285 283 285 284 284 284 284 282 284 285 285 286 281 283 288 288 284 280 281 287 293 297 300 301 302 299 291 280 268 260 254
191 196 210 203 184 169 174 185 190 187 188 187 196 203 212 219 218 220 228 242 263 264 262 260 255 265 277 283 290 282 281 281 278 279 275 275 278 281 280 282 281 280 281 283 288 292 293 297 293 289 289 290 295 300 306 306 307 315 323 322 298 283 277
192 201 205 201 201 183 175 180 187 188 184 193 186 195 211 221 235 247 255 258 258 268 262 258 255 268 277 288 283 279 279 286 286 274 272 277 285 284 285 283 283 282 277 272 295 308 309 305 301 293 294 295 299 307 312 312 321 335 336 323 312 299 285
194 202 201 201 195 188 187 185 186 182 184 188 193 203 210 218 226 227 226 240 253 254 266 255 254 262 279 280 275 278 283 286 286 281 276 278 281 284 287 289 291 292 291 306 321 311 307 307 298 292 289 300 309 313 311 311 313 320 320 315 306 293 277
198 198 199 196 186 189 191 191 181 178 184 195 201 209 207 211 218 223 230 242 250 251 254 219 250 258 263 270 272 275 282 287 285 286 280 273 278 284 285 288 294 292 292 294 302 305 303 298 294 296 299 300 319 312 306 305 310 317 324 323 316 303 286
193 192 190 189 191 187 188 183 183 190 198 203 208 210 209 212 218 216 229 235 241 244 246 229 240 255 266 265 275 278 277 277 287 289 281 283 279 280 280 285 293 292 287 289 296 288 286 286 287 292 297 305 312 300 301 302 304 312 324 325 324 320 302
191 189 187 188 189 192 187 189 194 196 203 206 207 207 213 202 195 213 226 227 236 235 245 243 244 250 259 269 269 270 271 277 283 284 284 281 282 285 288 289 292 294 292 288 283 286 284 283 287 290 300 303 305 303 303 299 301 317 328 328 324 323 318
189 188 191 194 195 188 190 193 199 204 204 205 206 205 206 196 196 214 218 224 233 223 239 242 258 243 258 271 269 262 269 277 278 279 279 286 292 292 291 289 286 286 283 282 288 278 277 281 279 284 299 297 303 298 290 294 300 320 329 325 322 324 322
192 190 194 195 199 198 193 195 199 206 216 220 213 210 202 213 221 227 238 230 236 236 239 243 249 265 258 266 273 275 274 276 274 276 285 293 296 297 292 287 288 292 292 289 287 289 287 285 291 292 296 297 301 294 291 295 305 322 329 327 327 330 323
197 191 194 201 194 195 191 195 197 202 212 214 201 204 197 209 210 210 232 224 227 243 238 242 251 263 279 276 278 278 273 269 279 288 298 301 303 300 294 294 289 289 296 297 297 288 278 279 262 264 263 274 291 293 298 300 312 331 334 331 333 334 333
190 197 201 203 190 193 198 195 198 208 204 196 201 197 209 216 201 210 226 238 240 237 250 248 254 260 264 274 279 279 278 276 277 293 300 303 302 297 294 295 301 300 287 299 301 306 310 294 276 253 253 273 287 292 298 303 314 334 338 334 339 347 344
232 207 194 171 182 197 196 204 211 216 202 204 204 209 215 208 200 205 221 239 249 244 258 251 253 255 260 267 268 268 274 280 290 297 300 303 294 290 292 291 284 277 280 286 297 308 310 301 288 261 224 241 267 274 290 299 302 328 340 338 341 352 346
211 194 174 174 180 193 203 206 205 207 207 203 215 224 216 212 197 198 225 241 245 240 251 253 251 255 254 253 255 260 267 279 298 295 293 295 289 286 293 295 290 293 291 273 274 285 298 303 290 290 264 230 239 272 282 291 300 327 337 341 341 353 350
191 174 194 205 209 200 198 195 179 198 201 207 224 219 207 203 190 205 224 241 237 247 250 249 242 243 245 253 262 267 275 281 291 293 293 290 291 292 283 281 296 300 302 299 274 297 316 315 307 295 291 271 257 268 274 290 304 318 334 341 341 349 1
194 183 188 195 205 195 191 193 193 198 203 212 221 209 201 185 184 216 230 234 233 244 245 243 242 247 251 259 263 268 276 282 262 280 293 275 269 280 290 292 295 306 316 315 323 324 325 325 324 314 304 296 265 267 277 283 305 311 327 339 345 350 0
191 215 225 207 195 181 188 190 203 214 227 232 220 207 191 174 190 220 228 231 239 244 245 249 248 251 258 259 262 276 281 274 285 258 265 284 291 307 310 310 314 304 313 314 315 338 314 307 315 319 309 309 293 274 276 290 301 317 322 337 344 343 0
192 199 197 190 211 202 183 192 202 208 218 223 209 205 194 170 200 223 224 225 241 245 250 255 258 256 255 258 260 258 268 275 284 286 285 295 300 302 304 310 326 327 334 336 332 332 322 309 311 318 315 312 313 291 279 290 307 305 315 321 336 337 351
201 202 202 206 198 194 190 198 199 210 227 223 207 200 185 173 206 223 224 242 247 255 265 264 257 254 253 253 247 250 263 277 287 271 266 269 308 319 317 321 324 318 328 333 332 330 327 315 306 312 311 313 313 314 307 296 292 294 290 303 325 334 338
196 198 199 197 205 199 191 188 196 210 226 229 214 193 184 180 201 227 235 251 252 251 255 259 260 252 249 248 247 239 253 299 284 268 262 281 1 333 323 319 327 327 322 336 335 337 336 314 307 305 303 308 304 307 311 302 304 308 301 300 301 346 338
222 227 219 212 204 195 191 195 201 202 228 250 222 194 179 189 195 220 235 254 256 241 246 258 261 253 243 245 219 220 220 305 276 268 288 317 311 269 265 265 293 303 307 327 331 342 343 330 326 318 316 305 299 304 305 305 314 314 313 330 347 358 357
214 205 198 203 206 186 182 175 190 216 227 242 236 191 199 203 214 225 247 266 265 262 251 252 248 247 244 231 219 223 160 217 242 264 309 318 318 296 256 245 263 287 316 333 337 339 340 342 337 332 326 319 311 309 313 316 320 321 320 343 14 2 341
218 221 229 216 194 166 156 180 202 215 217 228 237 222 224 224 227 227 230 246 254 259 262 254 236 227 227 209 209 198 188 212 237 227 253 281 275 292 305 307 285 330 319 318 331 330 334 332 330 321 311 308 310 317 324 327 333 5 359 346 352 354 351
214 214 208 198 199 184 192 197 206 216 214 228 228 219 235 239 239 223 218 234 246 248 261 260 254 238 229 212 199 210 207 203 229 227 231 266 292 256 233 248 275 282 301 274 308 303 294 315 306 306 303 294 287 307 316 330 336 338 351 2 28 9 341
265 257 249 255 270 228 214 214 213 216 222 238 247 239 249 262 257 225 222 240 250 244 243 246 231 232 238 235 225 236 232 233 238 240 240 242 258 307 321 245 229 222 209 274 63 27 342 267 302 305 312 308 284 249 266 294 315 355 19 30 30 28 30
238 274 331 8 343 328 294 292 284 247 250 255 257 241 249 261 272 276 254 234 248 231 243 235 224 222 236 228 233 233 224 228 240 242 242 244 269 337 290 320 323 252 240 215 264 125 223 76 58 22 1 347 313 340 26 51 22 349 33 43 36 21 10
73 90 105 114 130 175 225 231 240 244 250 266 286 283 268 272 280 270 266 249 244 243 241 219 212 237 246 237 239 240 234 226 229 239 239 278 24 251 242 41 353 335 342 257 359 88 67 53 44 43 46 41 22 346 2 49 21 7 22 29 31 20 1